Wind from 108 at 6 knots gusting 12

Air temperature 27.2° C
Dewpoint 20.1° C

Last reported at 2014-Apr-21 03:46 UTC.
Time now 2014-Apr-21 04:52 UTC

Location: S 19°40' E 147°25'.
View on Google Maps.

See reports from other nearby stations

Tides Stations Pressure Air Temp Water Temp Dewpoint Dewpoint depression Visibility Wind Speed Wind Dir Waves Ship positions

  
sailing weather and tide predictions

DW9615 Home Hill AU weather

date/time (UTC)wind fromknots sea level pressurealtimeterstation pressurevisibilityair tempwater tempwave heightnotes
2014-Apr-21 03:46 108 6 gusting 12 27.2
2014-Apr-21 03:31 081 5 gusting 12 27.2
2014-Apr-21 03:16 111 2 gusting 7 27.2
2014-Apr-21 03:01 135 6 gusting 13 27.2
2014-Apr-21 02:46 133 5 gusting 12 27.2
2014-Apr-21 02:31 121 5 gusting 13 26.7
2014-Apr-21 02:16 135 2 gusting 8 26.7
2014-Apr-21 02:01 119 3 gusting 9 26.7
2014-Apr-21 01:46 108 4 gusting 10 26.7
2014-Apr-21 01:30 162 4 gusting 11 27.2
2014-Apr-21 01:15 131 2 gusting 9 27.2
2014-Apr-21 01:00 098 5 gusting 13 26.7
2014-Apr-21 00:45 104 5 gusting 11 27.2
2014-Apr-21 00:30 069 5 gusting 13 27.2
2014-Apr-21 00:15 097 4 gusting 10 27.2
2014-Apr-21 00:00 107 3 gusting 9 26.7
2014-Apr-20 23:45 128 2 gusting 11 26.1
2014-Apr-20 23:30 111 4 gusting 10 25.6
2014-Apr-20 23:15 124 2 gusting 7 25.6
2014-Apr-20 23:00 122 4 gusting 8 24.4
2014-Apr-20 22:45 187 3 gusting 7 24.4
2014-Apr-20 22:30 145 3 gusting 6 23.9
2014-Apr-20 22:15 154 2 gusting 6 22.8
2014-Apr-20 22:00 138 1 gusting 5 22.2
2014-Apr-20 21:45 192 20.6
2014-Apr-20 21:30 133 20.0
2014-Apr-20 21:15 189 18.9
2014-Apr-20 21:00 184 18.3
2014-Apr-20 20:44 154 17.8
2014-Apr-20 20:29 154 17.2
2014-Apr-20 20:14 166 17.2
2014-Apr-20 19:59 170 17.2
2014-Apr-20 19:44 172 17.8
2014-Apr-20 19:29 189 17.8
2014-Apr-20 19:14 169 0 gusting 3 18.3
2014-Apr-20 18:59 207 0 gusting 2 17.8
2014-Apr-20 18:44 142 17.8
2014-Apr-20 18:29 207 0 gusting 2 17.8
2014-Apr-20 18:14 169 17.8
2014-Apr-20 17:59 169 18.3
2014-Apr-20 17:44 162 18.3
2014-Apr-20 17:29 156 17.8
2014-Apr-20 17:14 172 17.8
2014-Apr-20 16:59 160 18.3
2014-Apr-20 16:44 156 17.8
2014-Apr-20 16:30 193 17.8
2014-Apr-20 16:14 188 18.3
2014-Apr-20 15:59 192 17.8
2014-Apr-20 15:44 169 18.3
2014-Apr-20 15:29 139 18.3
2014-Apr-20 15:14 155 18.3
2014-Apr-20 14:59 171 18.3
2014-Apr-20 14:44 146 18.9
2014-Apr-20 14:29 145 18.9
2014-Apr-20 14:14 162 18.9
2014-Apr-20 13:59 122 19.4
2014-Apr-20 13:44 154 19.4
2014-Apr-20 13:29 149 20.0
2014-Apr-20 13:14 111 19.4
2014-Apr-20 12:59 166 20.0
2014-Apr-20 12:44 130 20.0
2014-Apr-20 12:29 122 20.6
2014-Apr-20 12:14 104 21.1
2014-Apr-20 11:59 108 0 gusting 2 21.1
2014-Apr-20 11:44 109 21.1
2014-Apr-20 11:29 108 0 gusting 2 21.1
2014-Apr-20 11:14 112 21.1
2014-Apr-20 10:59 107 21.1
2014-Apr-20 10:44 140 21.7
2014-Apr-20 10:29 088 0 gusting 3 22.2
2014-Apr-20 10:14 107 21.7
2014-Apr-20 09:59 091 22.2
2014-Apr-20 09:44 100 22.8
2014-Apr-20 09:28 100 22.8
2014-Apr-20 09:13 070 23.3
2014-Apr-20 08:59 080 23.3
2014-Apr-20 08:44 077 23.9
2014-Apr-20 08:29 092 0 gusting 3 23.9
2014-Apr-20 08:13 077 0 gusting 3 24.4
2014-Apr-20 07:58 094 1 gusting 5 25.0
2014-Apr-20 07:44 098 1 gusting 5 25.6
2014-Apr-20 07:28 064 3 gusting 7 26.1
2014-Apr-20 07:13 105 3 gusting 7 26.1
2014-Apr-20 06:58 110 4 gusting 7 26.7
2014-Apr-20 06:43 052 4 gusting 9 26.7
2014-Apr-20 06:28 084 5 gusting 10 27.2
2014-Apr-20 06:13 087 4 gusting 10 27.2
2014-Apr-20 05:58 097 5 gusting 10 27.8
2014-Apr-20 05:43 066 5 gusting 9 27.8
2014-Apr-20 05:28 114 3 gusting 8 28.3
2014-Apr-20 05:13 077 5 gusting 9 27.8
2014-Apr-20 04:58 079 4 gusting 8 27.8
2014-Apr-20 04:43 102 4 gusting 9 28.3
2014-Apr-20 04:28 102 3 gusting 6 28.3
2014-Apr-20 04:13 061 2 gusting 10 28.3
2014-Apr-20 03:58 108 5 gusting 10 28.3
2014-Apr-20 03:43 105 4 gusting 9 28.3
2014-Apr-20 03:28 108 5 gusting 9 28.3
2014-Apr-20 03:13 086 3 gusting 8 28.3
2014-Apr-20 02:58 088 5 gusting 12 27.8
2014-Apr-20 02:43 093 4 gusting 9 28.3
2014-Apr-20 02:28 053 4 gusting 8 28.3
2014-Apr-20 02:13 121 3 gusting 11 27.8
2014-Apr-20 01:58 149 2 gusting 9 28.3
2014-Apr-20 01:43 061 2 gusting 8 27.8
2014-Apr-20 01:28 089 3 gusting 10 27.8
2014-Apr-20 01:13 112 4 gusting 8 27.8
2014-Apr-20 00:58 074 4 gusting 8 27.8
2014-Apr-20 00:43 110 2 gusting 8 27.8
2014-Apr-20 00:28 063 4 gusting 7 27.2
2014-Apr-20 00:13 104 0 gusting 7 26.7
2014-Apr-19 23:58 111 1 gusting 5 26.7
2014-Apr-19 23:43 107 1 gusting 6 26.7
2014-Apr-19 23:28 197 2 gusting 5 25.6
2014-Apr-19 23:13 156 1 gusting 5 25.6
2014-Apr-19 22:57 139 1 gusting 4 25.0
2014-Apr-19 22:42 158 1 gusting 4 24.4
2014-Apr-19 22:27 152 0 gusting 3 23.3
2014-Apr-19 22:12 174 22.2
2014-Apr-19 21:57 143 21.1
2014-Apr-19 21:42 173 20.6
2014-Apr-19 21:27 180 20.0
2014-Apr-19 21:12 183 18.9
2014-Apr-19 20:57 176 18.3
2014-Apr-19 20:42 173 17.8
2014-Apr-19 20:27 174 17.8
2014-Apr-19 20:12 173 17.8
2014-Apr-19 19:57 173 17.8
2014-Apr-19 19:42 174 17.8
2014-Apr-19 19:27 177 18.3
2014-Apr-19 19:12 170 17.8
2014-Apr-19 18:57 169 17.8
2014-Apr-19 18:42 170 18.3
2014-Apr-19 18:27 170 18.3
2014-Apr-19 18:12 170 18.3
2014-Apr-19 17:57 170 18.3
2014-Apr-19 17:42 196 18.3
2014-Apr-19 17:27 203 18.3
2014-Apr-19 17:12 246 18.3
2014-Apr-19 16:57 247 18.3
2014-Apr-19 16:42 247 18.3
2014-Apr-19 16:27 247 18.3
2014-Apr-19 16:12 246 18.9
2014-Apr-19 15:57 246 18.9
2014-Apr-19 15:41 246 18.9
2014-Apr-19 15:26 247 19.4
2014-Apr-19 15:11 246 19.4
2014-Apr-19 14:56 246 19.4
2014-Apr-19 14:41 247 19.4
2014-Apr-19 14:26 247 19.4
2014-Apr-19 14:11 075 19.4
2014-Apr-19 13:56 067 19.4
2014-Apr-19 13:41 067 19.4
2014-Apr-19 13:26 067 20.0
2014-Apr-19 13:11 067 20.6
2014-Apr-19 12:56 063 20.6
2014-Apr-19 12:41 063 21.1
2014-Apr-19 12:26 063 21.1
2014-Apr-19 12:11 063 21.7
2014-Apr-19 11:56 063 22.2
2014-Apr-19 11:41 066 21.7
2014-Apr-19 11:26 354 21.1
2014-Apr-19 11:11 354 21.1
2014-Apr-19 10:56 354 21.1
2014-Apr-19 10:41 354 21.7
2014-Apr-19 10:26 355 21.7
2014-Apr-19 10:11 355 21.7
2014-Apr-19 09:56 354 21.7
2014-Apr-19 09:41 354 22.2
2014-Apr-19 09:26 354 22.2
2014-Apr-19 09:11 355 22.8
2014-Apr-19 08:56 355 22.8
2014-Apr-19 08:41 354 23.3
2014-Apr-19 08:26 079 23.9
2014-Apr-19 08:11 080 24.4
2014-Apr-19 07:56 063 25.0
2014-Apr-19 07:41 074 1 gusting 3 25.6
2014-Apr-19 07:26 059 1 gusting 4 26.1
2014-Apr-19 07:11 079 3 gusting 6 26.7
2014-Apr-19 06:56 102 4 gusting 6 26.7
2014-Apr-19 06:41 087 3 gusting 8 26.7
2014-Apr-19 06:26 063 4 gusting 8 27.2
2014-Apr-19 06:11 104 3 gusting 8 27.2
2014-Apr-19 05:56 073 3 gusting 8 27.8
2014-Apr-19 05:41 046 4 gusting 7 27.8
2014-Apr-19 05:26 107 3 gusting 8 28.3
2014-Apr-19 05:11 067 5 gusting 7 27.8
2014-Apr-19 04:56 048 3 gusting 8 28.3
2014-Apr-19 04:41 103 3 gusting 9 27.8
2014-Apr-19 04:26 079 3 gusting 7 28.3
2014-Apr-19 04:11 038 5 gusting 8 27.8